[Date Prev][Date Next][Thread Prev][Thread Next] - [Date Index][Thread Index][Author Index]
2 Line ISS Keps 9-3
- Subject: [sarex] 2 Line ISS Keps 9-3
- From: "Dr Dave Larsen PhD" <doc@xxxxxxxxxxx>
- Date: Sat, 3 Sep 2005 05:35:23 -0700
ISS
1 25544U 98067A 05246.44280443 .00025565 00000-0 19164-3 0 2794
2 25544 051.6430 220.2600 0001687 025.1699 115.6703 15.72457170387995
----
Via the sarex mailing list at AMSAT.ORG courtesy of AMSAT-NA.
To unsubscribe, send "unsubscribe sarex" to Majordomo@amsat.org
AMSAT Home